Temp
83 84 82 85 84 83 81 81 80 79 79 79 80 81 82 83 84 86 84 85 85 85 84 88 87 88 88 86 86 88 85 89 87 90 92 93 94 94 96 96 96 94 96
80 81 81 83 83 82 81 80 79 78 79 81 80 82 82 84 86 84 84 85 85 85 86 85 87 85 88 85 85 85 89 88 86 87 88 87 91 95 95 94 94 93 96
80 81 81 83 84 82 81 81 79 78 79 81 81 80 81 80 83 83 84 85 85 85 85 85 86 86 87 88 86 86 84 87 87 84 87 86 85 88 94 91 93 90 95
79 83 82 83 83 83 84 82 80 79 80 80 81 79 81 79 81 82 83 84 85 85 85 85 85 85 88 85 87 88 86 86 86 88 88 86 85 85 87 92 92 93 94
77 80 83 84 86 85 84 83 81 79 80 80 81 82 79 81 85 82 81 82 82 85 86 85 85 85 88 86 86 86 85 87 87 87 87 85 87 85 86 86 88 94 93
77 81 83 83 84 85 84 84 81 79 80 79 80 80 81 80 79 81 83 81 85 85 84 85 85 85 85 85 87 85 85 85 86 88 87 87 87 86 85 85 85 85 90
78 79 79 81 82 83 83 84 81 79 80 81 80 80 80 81 80 81 80 79 84 83 83 84 83 85 84 85 85 85 85 86 86 85 88 88 87 88 86 87 86 87 90
76 78 81 83 82 81 82 83 81 80 81 81 81 80 80 82 82 83 85 85 85 81 85 83 83 85 85 85 85 87 89 86 88 85 85 89 89 89 88 87 87 87 89
75 75 80 82 83 79 81 82 81 80 81 82 81 80 79 79 81 81 82 85 84 83 84 84 84 85 85 85 84 87 85 86 86 86 85 88 90 91 90 90 89 86 83
75 75 77 79 81 79 83 83 81 80 81 81 82 80 81 80 80 80 81 82 82 84 84 84 84 85 85 85 83 85 85 84 88 89 85 85 88 88 90 90 89 89 86
74 75 74 78 79 79 78 81 80 79 80 81 80 79 79 81 81 81 80 81 81 82 83 83 83 84 84 84 83 83 84 83 84 85 85 84 84 88 88 89 89 88 87
76 75 74 74 76 76 76 76 80 79 80 82 80 79 80 80 81 80 81 81 81 81 81 82 83 82 83 83 83 83 86 83 83 84 84 84 88 84 85 88 84 86 86
72 73 71 72 73 72 69 69 72 74 76 77 78 78 78 79 80 81 82 82 82 81 81 80 81 82 83 82 83 84 85 85 84 84 84 84 84 84 87 85 86 87 86
68 70 71 72 68 70 70 70 70 72 74 74 71 73 75 75 74 77 81 82 82 81 81 80 81 81 83 83 84 83 84 84 85 85 84 84 84 83 83 84 83 84 83
64 65 66 67 67 67 67 68 69 69 72 71 71 70 72 74 74 74 76 80 81 82 82 81 81 81 81 86 83 83 83 84 84 86 85 86 83 75 76 83 82 84 84
64 64 64 65 65 66 66 65 65 66 67 67 69 69 72 72 70 71 72 74 76 77 78 79 80 81 84 64 66 74 84 83 82 82 84 85 78 77 69 69 69 75 81
63 63 63 63 64 65 65 63 63 62 62 61 64 65 67 70 70 70 69 70 72 75 76 76 76 74 75 63 64 67 83 83 83 83 83 84 90 80 86 75 69 69 67
62 60 59 59 59 59 60 60 58 59 60 60 63 63 63 66 68 70 71 71 73 73 73 74 75 75 74 61 61 64 80 81 80 81 81 81 82 80 77 83 84 85 86
60 59 58 58 58 58 59 58 58 58 60 59 60 63 67 67 65 65 67 69 70 71 72 73 72 74 72 61 61 68 75 78 78 79 77 78 80 61 61 78 81 82 84
60 58 57 58 57 56 57 57 56 57 57 59 58 62 64 64 64 64 63 66 67 68 72 72 72 64 70 57 57 67 77 73 75 72 69 61 65 58 57 71 74 77 81
60 58 57 56 55 58 59 56 56 55 57 58 59 59 61 60 61 63 65 67 68 69 68 69 70 70 65 63 55 55 70 73 75 77 76 75 57 54 54 55 69 70 67
60 60 57 55 58 58 58 56 54 57 57 58 58 57 57 60 62 62 63 64 65 63 64 64 69 68 68 57 56 54 55 58 67 73 76 73 53 52 54 61 58 57 60
59 61 58 56 57 58 58 55 55 56 56 57 56 57 58 59 59 59 60 61 63 66 65 67 68 68 69 68 56 55 55 57 68 71 62 56 53 55 63 59 58 59 78
62 63 62 61 59 60 60 58 58 58 59 56 56 57 58 57 59 60 60 61 63 64 64 64 64 66 66 64 65 66 69 62 64 59 69 63 58 55 61 68 72 76 76
62 63 62 61 59 60 59 60 59 59 58 56 58 58 58 58 58 58 58 60 56 56 60 61 63 63 62 58 49 49 59 60 56 57 71 69 68 69 71 74 74 70 68
58 61 61 60 59 59 58 58 59 59 59 58 58 58 58 58 59 60 58 48 48 46 44 44 50 59 48 45 43 41 41 42 45 64 66 67 68 68 68 69 72 75 70
MSLP
1016.56 1016.89 1017.64 1017.97 1018.38 1019.05 1019.71 1020.20 1020.64 1021.04 1021.39 1021.66 1021.66 1021.67 1021.53 1021.81 1021.89 1021.98 1022.21 1022.31 1022.47 1022.58 1022.75 1022.57 1022.63 1022.58 1022.50 1022.57 1022.38 1022.24 1022.14 1021.90 1022.01 1021.54 1021.23 1021.15 1021.20 1021.13 1020.96 1020.91 1020.77 1020.72 1020.63
1016.66 1016.96 1017.38 1017.80 1018.16 1018.62 1019.34 1020.01 1020.48 1020.96 1021.19 1021.25 1021.45 1021.59 1021.58 1021.72 1021.68 1022.00 1022.16 1022.29 1022.57 1022.69 1022.83 1022.76 1022.63 1022.79 1022.67 1022.76 1022.71 1022.47 1022.06 1022.07 1022.23 1021.73 1021.59 1021.02 1021.00 1020.87 1021.00 1021.00 1020.94 1020.92 1020.65
1016.24 1016.57 1016.99 1017.30 1017.87 1018.27 1018.92 1019.58 1020.25 1020.82 1021.05 1020.99 1021.27 1021.63 1021.76 1021.89 1021.97 1022.11 1022.05 1022.22 1022.50 1022.66 1022.85 1022.93 1022.83 1022.82 1022.76 1022.71 1022.78 1022.65 1022.54 1022.15 1022.37 1022.43 1022.02 1021.37 1021.08 1021.12 1020.95 1021.09 1021.13 1021.09 1020.71
1016.09 1016.21 1016.71 1016.87 1017.26 1017.85 1018.68 1019.34 1019.99 1020.68 1021.07 1020.87 1021.11 1021.34 1021.29 1021.47 1021.61 1021.76 1021.86 1021.99 1022.31 1022.51 1022.76 1022.91 1022.91 1022.90 1022.74 1022.92 1022.90 1022.66 1022.71 1022.49 1022.23 1022.40 1022.42 1022.42 1022.21 1021.40 1020.73 1021.02 1021.20 1021.11 1020.94
1016.14 1015.87 1016.12 1016.59 1017.09 1017.77 1018.41 1019.15 1019.95 1020.44 1020.86 1021.01 1020.99 1021.12 1021.26 1021.44 1021.53 1021.81 1021.91 1022.06 1022.26 1022.41 1022.53 1022.72 1022.84 1022.87 1022.77 1023.00 1023.00 1023.09 1022.99 1022.83 1022.48 1022.37 1022.39 1022.52 1022.41 1022.21 1021.53 1021.05 1021.19 1020.99 1021.17
1015.65 1015.75 1016.16 1016.63 1017.15 1017.62 1018.24 1018.88 1019.75 1020.18 1020.63 1020.89 1020.98 1021.03 1021.01 1021.25 1021.43 1021.64 1021.63 1022.00 1022.14 1022.13 1022.51 1022.56 1022.76 1022.92 1022.98 1023.04 1023.02 1023.20 1023.26 1023.14 1023.02 1022.75 1022.60 1022.43 1022.26 1022.19 1022.01 1021.68 1021.75 1021.55 1021.29
1015.40 1015.57 1015.96 1016.42 1016.93 1017.40 1017.99 1018.60 1019.42 1019.97 1020.40 1020.71 1020.75 1020.99 1021.06 1021.13 1021.13 1021.44 1021.69 1021.95 1021.97 1022.08 1022.37 1022.46 1022.65 1022.72 1023.01 1023.09 1023.11 1023.20 1023.31 1023.27 1023.17 1023.12 1022.80 1022.72 1022.66 1022.67 1022.63 1022.23 1022.04 1021.68 1021.50
1015.33 1015.58 1015.60 1015.94 1016.66 1017.34 1017.84 1018.34 1018.99 1019.61 1020.09 1020.43 1020.69 1020.99 1021.16 1021.19 1021.35 1021.45 1021.44 1021.58 1021.68 1021.89 1022.01 1022.27 1022.50 1022.60 1022.78 1022.94 1023.07 1022.99 1022.97 1023.17 1023.30 1023.36 1023.27 1022.88 1022.84 1022.80 1022.80 1022.56 1022.24 1021.75 1021.51
1015.09 1015.55 1015.71 1015.88 1016.30 1017.05 1017.55 1017.95 1018.60 1019.28 1019.83 1020.10 1020.48 1020.90 1021.14 1021.27 1021.39 1021.61 1021.61 1021.49 1021.55 1021.71 1021.81 1021.97 1022.29 1022.46 1022.65 1022.80 1022.98 1022.99 1023.09 1023.14 1023.27 1023.40 1023.37 1023.09 1023.01 1022.95 1022.88 1022.77 1022.64 1022.34 1021.60
1015.03 1015.57 1015.75 1016.01 1016.37 1016.91 1017.40 1017.81 1018.28 1018.78 1019.34 1019.83 1020.13 1020.54 1020.94 1021.20 1021.35 1021.53 1021.54 1021.50 1021.34 1021.44 1021.69 1021.84 1021.94 1022.09 1022.36 1022.57 1022.88 1023.03 1023.06 1023.16 1023.18 1023.16 1023.25 1023.27 1023.19 1023.09 1023.00 1022.82 1022.73 1022.59 1022.18
1014.84 1015.38 1015.94 1016.14 1016.49 1016.98 1017.49 1017.77 1018.16 1018.67 1019.05 1019.54 1020.03 1020.33 1020.64 1020.97 1021.18 1021.28 1021.30 1021.30 1021.35 1021.50 1021.70 1021.80 1021.94 1022.10 1022.28 1022.39 1022.67 1022.80 1023.04 1023.11 1023.12 1023.23 1023.22 1023.18 1023.24 1022.99 1023.02 1022.92 1022.78 1022.60 1022.44
1015.05 1015.44 1016.03 1016.58 1016.95 1017.34 1017.62 1017.96 1018.33 1018.60 1018.82 1019.15 1019.97 1020.34 1020.68 1020.79 1020.83 1021.01 1021.10 1020.98 1021.21 1021.48 1021.65 1021.74 1021.90 1021.91 1022.11 1022.22 1022.64 1022.75 1022.73 1022.90 1022.94 1023.03 1023.12 1023.08 1023.04 1023.11 1023.10 1022.89 1022.89 1022.68 1022.69
1015.48 1015.82 1016.30 1016.81 1017.17 1017.72 1018.30 1018.53 1018.84 1019.20 1019.40 1019.51 1020.08 1020.44 1020.73 1020.86 1020.83 1020.89 1020.93 1021.01 1021.12 1021.33 1021.37 1021.57 1021.77 1021.93 1022.04 1022.33 1022.52 1022.62 1022.68 1022.85 1022.90 1022.91 1022.92 1022.86 1022.88 1022.90 1022.75 1022.87 1022.74 1022.54 1022.52
1015.75 1016.42 1016.80 1016.99 1017.66 1017.86 1018.27 1018.67 1018.72 1019.54 1019.91 1019.87 1020.50 1020.71 1020.92 1021.02 1021.14 1021.04 1020.89 1020.82 1020.72 1021.08 1021.32 1021.47 1021.67 1021.91 1021.92 1022.14 1022.46 1022.62 1022.65 1022.71 1022.72 1022.70 1022.59 1022.59 1022.65 1022.77 1022.86 1022.79 1022.79 1022.70 1022.59
1016.58 1016.88 1017.32 1017.64 1018.08 1018.21 1018.52 1018.65 1018.98 1019.44 1020.45 1020.46 1020.56 1021.00 1021.21 1021.24 1021.24 1021.18 1020.98 1020.93 1020.82 1020.95 1021.17 1021.36 1021.65 1021.82 1021.84 1021.90 1022.51 1022.53 1022.50 1022.45 1022.43 1022.43 1022.35 1021.97 1022.19 1022.53 1022.71 1022.88 1022.69 1022.55 1022.25
1017.40 1017.71 1018.18 1018.37 1018.41 1018.56 1018.82 1018.84 1019.47 1020.28 1021.07 1020.72 1021.03 1021.34 1021.32 1021.60 1021.65 1021.62 1021.35 1021.24 1021.30 1021.22 1021.29 1021.43 1021.67 1021.87 1022.02 1022.78 1022.57 1022.58 1022.22 1022.23 1022.23 1022.15 1021.98 1021.78 1022.00 1022.06 1022.48 1022.50 1022.47 1022.58 1022.30
1017.93 1018.26 1018.49 1018.72 1018.95 1019.24 1019.73 1019.66 1019.77 1020.71 1021.25 1021.52 1021.67 1021.91 1021.36 1022.13 1021.89 1022.14 1021.89 1021.83 1021.80 1021.76 1021.61 1021.77 1022.02 1022.36 1022.69 1022.92 1022.64 1022.42 1021.97 1021.94 1021.92 1021.92 1021.78 1021.64 1021.15 1021.48 1021.48 1021.75 1022.01 1022.09 1022.10
1018.41 1018.74 1019.21 1019.53 1019.81 1020.10 1020.62 1021.04 1020.69 1021.30 1021.08 1021.91 1022.09 1022.44 1022.03 1022.65 1022.37 1022.40 1022.21 1022.24 1022.27 1022.24 1022.10 1022.18 1022.33 1022.55 1022.91 1023.18 1023.07 1022.55 1021.97 1022.01 1021.97 1021.90 1021.77 1021.80 1021.76 1022.13 1022.37 1022.05 1021.75 1021.42 1021.19
1018.75 1019.56 1020.10 1020.43 1020.63 1020.78 1021.23 1021.28 1022.00 1022.44 1022.58 1022.84 1023.18 1023.15 1022.88 1023.05 1022.94 1022.57 1022.89 1022.72 1022.66 1022.64 1022.59 1022.70 1022.90 1022.99 1023.28 1023.31 1023.11 1022.72 1022.35 1022.06 1022.11 1022.04 1021.77 1022.18 1022.22 1023.11 1023.11 1022.39 1021.57 1021.14 1020.53
1019.26 1020.04 1020.90 1021.34 1021.35 1021.74 1022.15 1022.34 1022.76 1023.07 1023.34 1023.64 1023.90 1023.76 1023.44 1023.13 1023.23 1023.47 1023.54 1023.47 1023.11 1023.19 1022.91 1022.93 1023.40 1023.71 1023.86 1024.08 1023.88 1022.93 1022.88 1022.77 1022.59 1022.62 1022.84 1023.13 1023.20 1023.28 1023.21 1023.04 1022.40 1021.49 1020.69
1020.18 1020.79 1021.45 1022.03 1022.47 1022.78 1022.64 1022.88 1023.29 1023.66 1023.75 1023.86 1024.00 1024.24 1024.02 1023.81 1023.92 1023.96 1023.93 1023.81 1023.53 1023.36 1023.38 1023.73 1024.00 1024.39 1024.67 1024.52 1024.48 1024.44 1023.75 1023.57 1023.11 1022.64 1022.78 1022.82 1023.54 1023.64 1023.42 1023.27 1022.92 1022.61 1022.51
1020.76 1021.66 1021.86 1022.66 1023.11 1023.31 1023.47 1023.72 1024.06 1024.22 1024.33 1024.64 1024.72 1024.98 1024.94 1024.52 1024.57 1024.66 1024.69 1024.37 1024.22 1024.10 1024.13 1024.37 1024.35 1024.57 1024.60 1025.24 1025.07 1025.01 1024.78 1024.20 1023.87 1023.34 1023.15 1022.97 1023.72 1023.62 1023.38 1022.67 1022.81 1022.50 1022.28
1021.26 1021.95 1022.54 1022.77 1023.51 1023.91 1024.03 1024.21 1024.90 1025.00 1025.12 1025.26 1025.38 1025.59 1025.63 1025.37 1025.39 1025.04 1025.20 1025.23 1025.02 1024.70 1024.75 1024.71 1024.73 1024.73 1024.93 1024.97 1025.27 1025.22 1025.03 1025.05 1024.56 1023.82 1023.68 1023.81 1023.80 1022.96 1022.21 1022.37 1022.46 1022.04 1021.49
1021.69 1022.22 1022.75 1023.17 1023.60 1024.03 1024.25 1024.70 1025.18 1025.31 1025.49 1025.69 1025.90 1025.97 1025.95 1025.98 1026.03 1026.01 1026.06 1025.96 1025.75 1025.53 1025.49 1025.54 1025.34 1025.29 1025.38 1025.46 1025.33 1025.01 1024.15 1024.33 1024.15 1024.32 1023.23 1023.41 1023.32 1023.17 1023.09 1022.32 1021.77 1021.51 1021.42
1022.25 1022.63 1022.92 1023.35 1023.92 1024.23 1024.41 1024.75 1025.04 1025.22 1025.37 1025.55 1025.71 1026.07 1026.10 1026.17 1026.22 1026.60 1026.88 1026.82 1027.17 1027.05 1026.75 1026.68 1026.40 1026.19 1026.45 1027.21 1027.41 1027.05 1026.21 1025.83 1025.46 1025.02 1023.44 1023.27 1022.83 1022.22 1022.09 1021.89 1021.82 1021.80 1021.75
1022.82 1022.93 1023.30 1023.60 1024.09 1024.41 1024.76 1025.16 1025.35 1025.41 1025.37 1025.58 1025.92 1026.04 1026.07 1026.32 1026.33 1026.35 1026.97 1027.68 1027.71 1027.80 1028.02 1028.09 1027.82 1027.29 1027.97 1027.81 1027.37 1027.20 1026.78 1026.20 1025.76 1024.43 1023.72 1023.34 1023.01 1022.77 1022.51 1022.03 1021.60 1021.41 1021.54
Wind_Speed
12 12 12 12 12 11 11 11 10 9 7 4 4 3 3 4 3 2 4 4 3 3 3 2 2 2 3 4 4 2 4 3 4 2 1 1 1 1 2 3 4 5 4
11 12 14 13 13 13 12 11 10 9 9 7 4 2 3 3 3 3 4 4 3 3 2 2 2 1 2 3 4 5 3 3 5 3 1 2 3 3 4 3 4 6 4
14 14 15 15 14 13 13 12 10 10 10 9 5 3 4 2 4 5 5 5 5 5 3 2 1 2 1 2 3 4 5 3 3 5 3 0 2 2 2 4 4 5 3
11 14 15 16 15 13 12 12 11 10 9 9 8 8 7 5 5 5 5 5 5 5 5 5 3 2 0 1 1 3 4 3 3 2 4 4 3 2 2 4 5 5 6
7 14 17 14 14 12 12 12 11 10 10 10 8 8 7 4 4 4 6 6 5 5 5 5 4 3 2 1 1 1 4 4 5 4 2 2 3 3 3 3 4 2 5
5 8 11 11 12 11 11 11 11 11 10 10 9 9 8 7 4 5 6 5 4 5 5 6 5 4 2 3 2 1 2 4 4 4 4 4 2 3 3 4 3 4 4
7 8 13 12 11 12 12 11 11 11 10 10 8 8 6 6 5 6 5 6 5 4 6 5 6 5 4 4 3 2 1 2 3 3 4 4 4 2 2 2 3 2 2
8 6 12 12 12 12 13 13 12 11 11 10 8 6 6 4 4 6 5 6 5 4 6 6 5 5 4 4 3 3 2 2 1 3 3 3 4 3 3 3 4 1 1
10 9 9 10 11 11 13 13 12 11 11 11 8 7 6 5 4 4 5 5 5 4 5 6 6 5 5 5 4 4 4 3 2 1 1 1 1 1 2 1 2 4 5
13 10 9 9 7 6 10 12 13 13 13 11 9 6 6 5 4 4 5 5 5 6 6 7 7 7 5 5 6 4 4 4 2 2 3 1 0 2 1 1 1 2 4
16 11 7 7 7 7 8 11 11 12 13 12 9 7 7 7 6 4 6 6 4 6 5 5 5 7 7 7 7 6 5 5 4 4 4 4 4 3 3 2 2 3 3
13 11 7 5 5 4 5 9 9 10 11 11 8 5 3 4 6 5 5 7 6 5 5 6 6 8 8 8 7 7 6 7 6 5 5 6 4 5 3 4 3 3 3
8 6 4 2 6 6 7 7 8 7 8 10 9 7 5 4 4 6 6 6 6 5 6 6 5 5 5 7 6 7 8 7 7 6 6 6 5 4 3 4 4 3 3
5 3 4 4 5 9 11 12 12 9 9 11 9 7 5 4 2 2 6 7 7 6 7 7 6 5 6 5 6 7 6 6 6 6 6 6 6 6 5 4 5 4 5
5 3 1 1 6 6 9 11 12 10 8 9 10 7 6 5 4 3 0 4 6 6 5 5 5 5 4 4 6 7 7 6 7 7 7 6 5 5 7 5 5 6 6
7 7 5 3 6 7 4 10 9 7 4 9 9 7 8 7 7 5 4 4 4 5 5 4 4 5 1 5 3 6 6 7 6 7 6 6 7 9 9 9 9 8 7
8 7 8 6 5 7 9 9 12 8 9 7 8 5 8 6 7 5 7 6 4 5 7 6 6 6 5 4 5 3 5 5 6 6 6 7 5 3 5 5 8 9 10
10 8 8 9 9 11 12 12 12 7 10 8 8 6 8 5 6 6 8 7 5 5 6 5 4 5 5 7 8 6 2 2 4 5 6 7 7 4 6 8 9 9 9
11 10 9 9 11 11 11 14 12 8 10 11 8 6 7 7 5 7 6 5 5 5 7 6 5 5 7 5 5 5 4 2 2 3 4 6 6 9 10 8 9 9 9
12 12 10 8 10 10 9 11 9 9 8 8 5 5 6 7 8 5 5 3 4 5 6 9 8 8 8 12 12 8 5 7 5 6 4 8 6 6 7 6 8 8 7
14 12 10 8 7 5 9 10 8 8 7 5 7 6 7 8 7 7 6 6 6 8 9 8 8 8 11 12 14 14 5 5 4 3 3 3 7 8 6 3 5 7 9
15 12 11 8 7 7 8 10 9 7 7 6 7 7 7 6 6 7 7 8 7 7 8 6 7 7 8 13 13 14 11 10 5 5 4 4 8 7 8 6 7 8 7
11 11 10 11 7 6 6 10 6 7 8 8 8 7 7 7 7 7 6 5 6 5 5 5 5 5 5 6 9 6 7 9 4 5 7 10 11 7 6 6 8 8 5
12 12 12 11 9 8 9 9 8 8 8 9 8 7 7 7 7 6 6 5 5 5 5 5 4 4 5 8 9 9 8 8 6 9 6 6 7 5 7 6 4 6 5
9 10 10 11 11 8 8 7 7 7 9 8 7 6 6 6 7 8 6 7 8 7 5 5 5 5 6 8 6 6 7 7 6 9 5 6 6 6 6 6 5 3 2
8 9 9 10 10 9 9 8 6 6 8 8 5 5 5 4 4 5 7 11 10 11 10 9 9 6 8 10 11 12 11 10 10 5 6 7 7 7 7 8 8 6 4
Wind_Direction
199 189 190 189 182 180 182 192 192 178 175 164 178 191 187 165 156 145 154 142 144 132 151 147 110 60 57 45 22 23 36 47 12 317 93 65 2 338 22 4 1 1 350
199 196 190 190 190 182 189 188 198 194 195 184 181 187 182 186 174 166 173 156 171 159 179 176 125 79 72 50 25 28 16 46 24 21 338 43 137 74 33 40 23 18 7
205 199 198 193 196 185 188 191 193 201 197 181 165 144 154 143 177 184 178 188 186 179 199 221 225 161 313 66 24 31 30 42 67 33 353 195 52 327 59 52 43 16 28
214 205 206 199 196 189 186 193 186 195 201 183 179 187 191 187 209 189 180 183 193 181 191 209 208 212 205 75 37 45 32 359 55 97 57 38 357 2 105 95 48 30 26
203 202 210 207 200 185 184 191 192 193 203 201 199 193 185 194 189 179 183 177 175 187 188 195 205 200 190 162 124 83 52 59 57 54 75 85 64 42 14 66 39 57 42
186 210 201 197 199 190 186 189 193 201 201 210 201 209 199 180 172 180 182 175 173 182 183 190 188 183 155 178 135 71 73 65 58 63 51 43 38 57 50 57 44 4 45
161 193 183 186 197 190 191 189 192 202 199 209 206 206 211 205 211 187 183 175 182 185 171 172 179 188 174 185 161 142 69 64 64 48 68 61 57 50 34 19 65 16 32
158 173 194 189 191 189 193 189 196 204 198 199 213 214 205 211 216 205 197 193 198 180 173 184 190 195 187 194 193 195 199 119 79 80 47 73 79 69 47 14 351 359 341
148 155 170 179 184 175 193 194 192 201 204 198 199 201 195 205 213 212 214 203 198 191 195 190 188 199 205 205 203 218 215 208 179 131 135 325 92 108 92 62 1 340 334
172 164 162 162 167 177 187 190 188 194 200 200 197 196 192 188 206 211 219 214 210 200 201 207 205 194 203 202 208 213 202 215 226 220 179 219 225 219 188 199 207 270 302
195 172 159 175 160 159 176 182 183 185 196 201 195 192 195 181 182 202 214 199 206 211 212 220 217 215 209 212 211 210 217 223 224 230 228 227 222 237 231 233 248 258 266
188 200 190 177 201 177 165 172 184 189 194 181 172 176 183 200 190 207 206 191 203 206 223 215 222 226 217 215 211 218 218 222 223 230 239 247 237 239 243 250 261 270 261
165 161 163 187 217 172 133 120 126 150 155 140 143 140 143 156 207 219 211 210 201 197 208 213 214 240 242 224 225 225 221 232 238 235 244 256 238 248 244 244 247 234 252
135 169 180 172 156 174 153 135 121 124 128 119 118 109 98 90 93 282 234 208 203 204 189 191 198 223 214 220 237 241 236 232 243 237 237 246 242 255 267 254 271 293 286
146 153 160 132 145 145 153 134 123 111 120 114 106 96 89 80 64 48 55 228 198 189 191 186 189 196 221 222 227 238 253 246 250 256 250 239 261 272 268 275 270 287 274
155 148 136 150 139 130 121 117 114 98 142 103 97 96 91 80 65 53 74 94 133 131 136 149 202 199 151 27 35 254 243 251 254 249 245 248 229 239 238 239 254 266 259
137 139 133 114 105 107 124 118 99 104 101 84 99 86 84 79 85 78 67 63 82 114 112 107 110 111 92 50 62 17 241 251 259 268 280 279 264 255 277 227 231 240 240
125 96 92 92 87 89 90 83 77 75 88 84 84 101 87 95 99 96 90 82 78 84 90 91 98 114 74 29 6 341 116 243 263 271 276 275 282 341 310 287 278 270 261
104 92 85 90 92 88 92 95 90 72 81 79 73 75 105 105 97 77 74 92 89 91 90 79 89 102 69 25 360 0 28 44 359 315 3 299 287 36 353 284 272 280 282
111 107 96 89 93 91 93 97 102 103 83 78 78 69 76 72 70 81 61 72 94 91 99 93 72 57 73 33 25 25 54 50 31 41 74 53 42 2 11 339 325 294 295
117 111 99 94 78 81 110 92 89 69 82 76 64 48 68 78 60 62 61 66 83 88 83 82 72 64 41 42 25 12 42 10 4 22 23 37 26 352 344 331 302 306 319
124 118 110 96 98 97 97 103 92 99 82 77 73 61 43 59 80 81 66 61 71 70 78 91 90 71 59 42 28 17 7 4 340 334 354 357 351 327 317 313 339 295 282
121 122 117 110 100 100 107 108 110 113 110 107 96 86 71 64 52 65 62 61 64 73 74 68 73 76 62 32 38 31 22 11 338 345 328 313 305 306 303 15 316 286 318
136 135 133 126 121 118 112 114 129 125 120 114 109 103 94 87 76 72 63 58 50 64 65 55 53 46 40 30 10 1 6 11 14 349 337 308 268 269 289 311 337 343 343
145 152 145 137 132 129 118 120 120 123 111 103 100 96 89 86 91 71 52 81 58 37 54 43 41 20 34 13 347 1 354 353 351 310 330 342 346 345 335 328 315 283 16
168 164 155 146 144 143 140 140 143 139 130 120 114 98 96 88 90 105 96 55 61 56 58 53 44 87 51 355 5 3 347 339 329 319 334 327 324 322 321 318 308 298 300